DateTime,F1_A11,F1_S11,BsB_S11,BsG_S11,BsR_S11,BbsB_S11,BbsG_S11,BbsR_S11,BaB_A11,BaG_A11,BaR_A11,T_S11,U_S11,P_S11,T1_A11
2016-12-27T00:00:00Z,0000380,21000600,,,,,,,,,,26.4,00.0,0641.4,34.7
2016-12-27T00:01:00Z,0000380,21000600,,,,,,,,,,26.4,00.0,0641.4,34.6
2016-12-27T00:02:00Z,0000380,21000600,,,,,,,,,,26.4,00.0,0641.4,34.6
2016-12-27T00:03:00Z,0000380,61000600,,,,,,,,,,26.4,00.0,0641.4,34.6
2016-12-27T00:04:00Z,0000380,41000600,0000.00,0000.33,0000.00,0001.13,-000.07,0000.09,0000.32,0000.05,0000.07,26.3,00.0,0642.3,34.6
2016-12-27T00:05:00Z,0000380,01000600,0001.71,0000.56,-000.41,0000.23,-000.11,-000.08,-000.14,-000.09,-000.31,26.3,00.0,0642.4,34.6
2016-12-27T00:06:00Z,0000380,01000600,0001.55,0000.41,-000.42,0000.68,0000.25,-000.28,-000.13,0000.19,0000.33,26.2,00.0,0642.4,34.6
2016-12-27T00:07:00Z,0000380,01000600,0000.83,0000.05,-000.16,0000.77,0000.66,0000.14,-000.18,-000.18,-000.04,26.2,00.0,0642.4,34.6
2016-12-27T00:08:00Z,0000380,01000600,0001.16,0000.86,-000.06,0000.17,0000.28,0000.09,0000.19,-000.17,0000.29,26.2,00.0,0642.3,34.6
2016-12-27T00:09:00Z,0000380,01000600,0000.69,0000.92,0000.17,0000.31,0000.45,0000.21,-000.03,0000.14,-000.08,26.2,00.0,0642.4,34.6
2016-12-27T00:10:00Z,0000380,01000600,-000.24,-000.53,0000.14,0000.15,0000.11,0000.05,0000.05,0000.07,-000.00,26.2,00.0,0642.3,34.6
2016-12-27T00:11:00Z,0000380,01000600,0000.02,0000.42,0000.13,0000.60,-000.08,0000.58,0000.01,-000.08,-000.30,26.2,00.0,0642.3,34.6
2016-12-27T00:12:00Z,0000380,01000600,0001.16,0000.22,0000.25,0000.46,0000.12,0000.17,0000.12,0000.09,0000.25,26.2,00.0,0642.3,34.6
2016-12-27T00:13:00Z,0000380,01000600,-000.20,0001.00,0000.13,-000.01,0000.52,0000.24,-000.04,0000.08,-000.06,26.2,00.0,0642.3,34.6
2016-12-27T00:14:00Z,0000380,01000600,0000.39,-000.24,-000.32,0000.67,0000.42,0000.22,0000.21,0000.14,0000.35,26.2,00.0,0642.3,34.7
2016-12-27T00:15:00Z,0000380,01000600,0001.05,0000.25,0000.23,0000.66,0000.36,0000.30,-000.04,-000.07,-000.25,26.3,00.0,0642.3,34.7
2016-12-27T00:16:00Z,0000380,01000600,-000.39,0000.60,0000.10,0000.62,0000.42,0000.58,0000.09,0000.02,-000.12,26.2,00.0,0642.4,34.7
2016-12-27T00:17:00Z,0000380,01000600,-000.21,0000.67,0000.27,0000.72,0000.36,0000.26,-000.12,0000.02,0000.07,26.2,00.0,0642.4,34.6
2016-12-27T00:18:00Z,0000380,01000600,0001.13,0000.63,-000.16,0000.26,0000.21,-000.10,0000.23,-000.11,-000.05,26.2,00.0,0642.3,34.6
2016-12-27T00:19:00Z,0000380,01000600,0000.21,0000.37,0000.07,0000.80,-000.06,0000.11,-000.06,0000.03,0000.14,26.2,00.0,0642.3,34.6
2016-12-27T00:20:00Z,0000380,01000600,0000.54,0000.06,-000.24,0000.44,0000.32,-000.17,-000.11,0000.08,-000.00,26.1,00.0,0642.3,34.6
2016-12-27T00:21:00Z,0000380,01000600,0000.91,0001.08,0000.04,0000.23,0000.22,0000.06,0000.05,-000.02,0000.11,26.1,00.0,0642.3,34.6
2016-12-27T00:22:00Z,0000380,01000600,-000.38,0000.71,-000.06,0000.67,0000.02,0000.06,-000.03,0000.10,0000.20,26.1,00.0,0642.3,34.6
2016-12-27T00:23:00Z,0000380,01000600,-000.21,0000.22,-000.18,0000.55,0000.79,0000.10,0000.05,-000.19,-000.38,26.1,00.0,0642.3,34.6
2016-12-27T00:24:00Z,0000380,01000600,-000.28,-000.11,0000.17,0000.29,0000.63,-000.11,-000.09,0000.11,-000.13,26.1,00.0,0642.3,34.6
2016-12-27T00:25:00Z,0000380,01000600,0000.12,0000.15,0000.04,0000.60,0000.31,0000.13,0000.06,0000.04,0000.14,26.1,00.0,0642.2,34.6
2016-12-27T00:26:00Z,0000380,01000600,0000.75,0000.64,0000.03,0000.07,0000.40,0000.17,0000.21,-000.09,0000.05,26.1,00.0,0642.3,34.6
2016-12-27T00:27:00Z,0000380,01000600,0001.75,0000.57,-000.16,-000.58,-000.02,-000.16,-000.06,0000.16,0000.08,26.1,00.0,0642.3,34.6
2016-12-27T00:28:00Z,0000380,01000600,-000.25,0000.06,0000.02,0000.53,0000.02,0000.27,-000.06,0000.06,-000.15,26.1,00.0,0642.3,34.6
2016-12-27T00:29:00Z,0000380,01000600,0000.57,0000.79,0000.01,0000.56,-000.33,-000.28,-000.07,-000.19,0000.01,26.2,00.0,0642.3,34.6
2016-12-27T00:30:00Z,0000380,01000600,0001.10,0000.41,0000.06,0000.59,0000.18,0000.58,0000.27,0000.22,0000.23,26.2,00.0,0642.3,34.7
2016-12-27T00:31:00Z,0000380,01000600,0000.87,0000.47,-000.08,0000.18,0000.38,0000.12,-000.14,-000.01,-000.12,26.2,00.0,0642.3,34.7
2016-12-27T00:32:00Z,0000380,01000600,-000.09,0000.45,0000.33,0000.78,0000.23,-000.07,0000.00,0000.04,-000.04,26.2,00.0,0642.2,34.7
2016-12-27T00:33:00Z,0000380,01000600,0000.58,-000.23,-000.37,0000.60,0000.33,-000.51,0000.04,-000.04,0000.14,26.2,00.0,0642.2,34.7
2016-12-27T00:34:00Z,0000380,01000600,-000.39,-000.12,0000.40,0000.11,0000.20,0000.05,0000.08,0000.04,0000.19,26.2,00.0,0642.2,34.6
2016-12-27T00:35:00Z,0000380,01000600,0000.52,0000.02,0000.06,0000.29,-000.12,-000.13,-000.13,0000.04,-000.35,26.2,00.0,0642.2,34.6
2016-12-27T00:36:00Z,0000380,01000600,-000.96,0000.54,-000.01,0000.52,0000.13,-000.03,0000.15,-000.14,0000.05,26.1,00.0,0642.2,34.6
2016-12-27T00:37:00Z,0000380,01000600,0000.77,-000.12,0000.03,-000.06,0000.14,-000.26,0000.11,0000.09,0000.25,26.1,00.0,0642.2,34.6
2016-12-27T00:38:00Z,0000380,01000600,0000.13,0000.46,-000.20,-000.27,0000.43,-000.15,-000.22,-000.06,-000.02,26.1,00.0,0642.2,34.6
2016-12-27T00:39:00Z,0000380,01000600,0000.09,0001.40,-000.03,-000.43,0000.25,0000.12,0000.11,-000.07,-000.20,26.1,00.0,0642.2,34.6
2016-12-27T00:40:00Z,0000380,01000600,0000.35,0000.94,-000.50,0000.82,-000.32,-000.02,0000.11,-000.00,0000.42,26.1,00.0,0642.2,34.6
2016-12-27T00:41:00Z,0000380,01000600,0000.91,-000.07,0000.06,0000.49,0000.27,0000.07,0000.02,0000.12,-000.19,26.1,00.0,0642.2,34.6
2016-12-27T00:42:00Z,0000380,01000600,0001.58,0000.56,-000.10,0000.14,0000.30,-000.35,-000.18,-000.01,-000.02,26.2,00.0,0642.2,34.7
2016-12-27T00:43:00Z,0000380,01000600,0000.28,0000.65,-000.31,0000.72,0000.05,-000.16,0000.05,-000.06,-000.14,26.2,00.0,0642.2,34.7
2016-12-27T00:44:00Z,0000380,01000600,0000.02,0000.32,-000.45,-000.44,0000.43,-000.28,0000.08,0000.11,0000.23,26.2,00.0,0642.1,34.7
2016-12-27T00:45:00Z,0000380,01000600,0001.26,0000.90,-000.68,0000.89,0000.28,-000.14,0000.03,0000.02,-000.07,26.2,00.0,0642.1,34.7
2016-12-27T00:46:00Z,0000380,01000600,0000.60,0000.09,-000.35,0000.49,-000.30,0000.28,0000.12,0000.17,0000.09,26.2,00.0,0642.1,34.7
2016-12-27T00:47:00Z,0000380,01000600,0000.44,0000.67,-000.44,-000.02,0000.33,0000.07,0000.03,-000.03,0000.04,26.2,00.0,0642.1,34.7
2016-12-27T00:48:00Z,0000380,01000600,0001.24,0000.64,-000.04,0000.72,0000.42,-000.56,0000.13,-000.07,-000.22,26.2,00.0,0642.1,34.6
2016-12-27T00:49:00Z,0000380,01000600,0000.47,0000.04,-000.24,0000.55,-000.02,0000.14,-000.14,-000.05,0000.29,26.2,00.0,0642.1,34.6
2016-12-27T00:50:00Z,0000380,01000600,-000.21,0000.38,0000.06,0000.96,-000.17,0000.40,-000.05,0000.17,0000.04,26.1,00.0,0642.0,34.6
2016-12-27T00:51:00Z,0000380,01000600,0000.93,0000.18,-000.03,0001.04,0000.20,0000.19,0000.21,0000.11,-000.07,26.1,00.0,0642.0,34.6
2016-12-27T00:52:00Z,0000380,01000600,-000.20,0000.69,-000.10,0000.43,0000.11,0000.25,-000.22,-000.25,0000.05,26.1,00.0,0642.0,34.6
2016-12-27T00:53:00Z,0000380,01000600,0001.00,0000.85,-000.13,-000.26,0000.14,0000.02,-000.02,0000.12,-000.04,26.0,00.0,0642.0,34.6
2016-12-27T00:54:00Z,0000380,01000600,0000.72,0000.43,-000.32,0000.94,0000.57,0000.47,0000.12,-000.04,-000.05,26.1,00.0,0642.0,34.6
2016-12-27T00:55:00Z,0000380,01000600,-000.40,0000.03,0000.45,0000.63,0000.13,0000.24,-000.10,0000.02,-000.16,26.1,00.0,0641.9,34.6
2016-12-27T00:56:00Z,0000380,01000600,0000.45,0000.05,-000.25,0001.23,0000.13,0000.44,0000.02,0000.01,0000.22,26.1,00.0,0641.9,34.6
2016-12-27T00:57:00Z,0000380,41000600,,,,,,,,,,26.1,00.0,0641.9,34.6
2016-12-27T00:58:00Z,0000380,61000600,,,,,,,,,,26.1,00.0,0641.0,34.6
2016-12-27T00:59:00Z,0000380,21000600,,,,,,,,,,26.1,00.0,0640.9,34.7
2016-12-27T01:00:00Z,0000380,21000600,,,,,,,,,,26.1,00.0,0640.9,34.7
2016-12-27T01:01:00Z,0000380,21000600,,,,,,,,,,26.1,00.0,0640.9,34.6
2016-12-27T01:02:00Z,0000380,21000600,,,,,,,,,,26.2,00.0,0640.9,34.6
2016-12-27T01:03:00Z,0000380,61000600,,,,,,,,,,26.2,00.0,0640.9,34.6
2016-12-27T01:04:00Z,0000380,41000600,0000.67,-000.36,0000.82,0000.35,-000.02,0000.28,0000.03,0000.13,-000.10,26.1,00.0,0641.8,34.6
2016-12-27T01:05:00Z,0000380,01000600,-001.21,0000.36,-000.09,-000.02,0000.12,-000.29,-000.05,0000.02,0000.27,26.0,00.0,0641.9,34.6
2016-12-27T01:06:00Z,0000380,01000600,-000.41,-000.14,0000.61,-000.75,-000.32,0000.06,0000.06,-000.11,0000.05,25.9,00.0,0641.9,34.6
2016-12-27T01:07:00Z,0000380,01010600,-000.08,0000.22,0000.03,-000.14,-000.14,-000.06,-000.10,0000.08,-000.32,25.9,00.0,0641.9,34.6
2016-12-27T01:08:00Z,0000380,01000600,-000.82,0000.35,0000.18,-000.21,-000.25,-000.26,0000.23,-000.01,0000.22,25.9,00.0,0641.9,34.6
2016-12-27T01:09:00Z,0000380,01000600,0000.35,0000.79,0000.79,0000.09,-000.05,-000.15,-000.06,0000.17,0000.19,25.9,00.0,0641.9,34.6
2016-12-27T01:10:00Z,0000380,01000600,0001.46,-000.68,0000.44,0000.32,-000.60,-000.07,0000.15,-000.09,-000.17,25.9,00.0,0641.8,34.6
2016-12-27T01:11:00Z,0000380,01000600,-000.10,0000.23,-000.21,-000.36,0000.15,-000.30,-000.06,-000.19,-000.04,25.9,00.0,0641.8,34.6
2016-12-27T01:12:00Z,0000380,01000600,0000.24,0000.23,0000.47,-000.10,-000.30,-000.16,0000.02,0000.02,0000.18,25.9,00.0,0641.8,34.6
2016-12-27T01:13:00Z,0000380,01000600,0000.54,-000.07,0000.68,-000.59,-000.01,-000.09,-000.01,0000.06,-000.11,25.9,00.0,0641.8,34.6
2016-12-27T01:14:00Z,0000380,01000600,0000.67,0000.15,0000.47,-000.81,-000.60,0000.04,0000.09,0000.06,0000.11,26.0,00.0,0641.8,34.6
2016-12-27T01:15:00Z,0000380,01000600,0000.16,-000.05,0000.35,0000.15,0000.33,0000.41,0000.01,0000.17,-000.00,26.0,00.0,0641.8,34.6
2016-12-27T01:16:00Z,0000380,01000600,-000.26,-000.09,0000.24,0000.34,0000.27,0000.15,0000.08,-000.08,0000.29,26.0,00.0,0641.8,34.7
2016-12-27T01:17:00Z,0000380,01000600,0000.15,-000.48,0000.52,0000.54,-000.10,0000.12,-000.06,0000.15,-000.21,26.0,00.0,0641.8,34.7
2016-12-27T01:18:00Z,0000380,01000600,0000.02,0000.15,0000.08,-000.67,-000.07,-000.02,0000.18,0000.04,0000.24,26.0,00.0,0641.8,34.7
2016-12-27T01:19:00Z,0000380,01000600,-000.71,0000.23,0000.79,-000.19,0000.16,0000.09,-000.04,0000.01,-000.43,26.0,00.0,0641.8,34.7
2016-12-27T01:20:00Z,0000380,01000600,-001.68,0000.06,0000.47,0000.32,0000.31,-000.13,0000.31,0000.13,0000.38,26.0,00.0,0641.8,34.6
2016-12-27T01:21:00Z,0000380,01000600,0000.89,0000.08,0000.93,0000.21,-000.12,0000.16,-000.09,-000.00,0000.01,26.0,00.0,0641.7,34.6
2016-12-27T01:22:00Z,0000380,01000600,-000.05,-000.69,0000.69,-000.10,-000.04,0000.15,0000.03,-000.10,-000.02,26.0,00.0,0641.7,34.6
2016-12-27T01:23:00Z,0000380,01000600,-000.71,0000.68,0000.63,-000.35,-000.04,-000.36,0000.05,-000.03,-000.03,26.0,00.0,0641.7,34.6
2016-12-27T01:24:00Z,0000380,01000600,-001.21,-000.04,0000.31,0000.34,-000.09,-000.00,0000.02,0000.13,-000.14,26.0,00.0,0641.7,34.6
2016-12-27T01:25:00Z,0000380,01000600,0000.37,-000.58,0000.20,0000.55,-000.16,-000.51,-000.09,-000.07,0000.18,26.0,00.0,0641.7,34.7
2016-12-27T01:26:00Z,0000380,01000600,-001.05,0000.19,0000.23,0000.20,0000.55,0000.23,0000.19,-000.02,-000.25,26.0,00.0,0641.7,34.7
2016-12-27T01:27:00Z,0000380,01000600,0000.86,-000.32,0000.12,-000.21,-000.18,0000.00,-000.08,0000.11,0000.01,26.0,00.0,0641.7,34.7
2016-12-27T01:28:00Z,0000380,01000600,-000.40,-000.30,0000.57,-000.30,0000.03,0000.24,-000.16,0000.14,0000.27,26.0,00.0,0641.7,34.7
2016-12-27T01:29:00Z,0000380,01000600,0000.11,-000.01,0000.64,0000.31,-000.13,-000.13,0000.23,-000.07,0000.04,26.1,00.0,0641.7,34.7
2016-12-27T01:30:00Z,0000380,01000600,0000.33,0000.67,0000.33,-000.51,-000.09,-000.04,0000.02,-000.03,0000.07,26.1,00.0,0641.7,34.7
2016-12-27T01:31:00Z,0000380,01000600,0001.02,0000.12,0000.50,-000.08,-000.00,0000.00,0000.15,0000.29,-000.05,26.1,00.0,0641.7,34.7
2016-12-27T01:32:00Z,0000380,01000600,-000.84,-000.02,0000.27,0000.00,-000.54,-000.06,-000.01,-000.19,-000.22,26.1,00.0,0641.7,34.7
2016-12-27T01:33:00Z,0000380,01000600,0000.35,0000.09,0000.73,0000.62,0000.13,-000.18,0000.12,0000.20,0000.38,26.1,00.0,0641.7,34.6
2016-12-27T01:34:00Z,0000380,01000600,0000.27,-000.23,0000.51,0000.47,-000.00,-000.03,-000.12,0000.06,-000.21,26.1,00.0,0641.7,34.6
2016-12-27T01:35:00Z,0000380,01000600,-000.17,0000.36,0000.48,-000.46,-000.11,-000.00,0000.25,0000.06,0000.22,26.0,00.0,0641.6,34.6
2016-12-27T01:36:00Z,0000380,01000600,0000.06,-000.31,0000.74,-000.28,-000.42,-000.17,-000.22,0000.02,0000.16,26.0,00.0,0641.6,34.6
2016-12-27T01:37:00Z,0000380,01000600,-000.52,0000.47,0000.75,-000.80,-000.34,0000.33,0000.21,-000.05,-000.46,26.0,00.0,0641.6,34.6
2016-12-27T01:38:00Z,0000380,01000600,0000.69,0000.02,-000.17,-000.30,-000.00,-000.14,0000.21,0000.25,0000.65,26.0,00.0,0641.6,34.6
2016-12-27T01:39:00Z,0000380,01000600,0000.66,0000.18,0000.33,-000.12,0000.00,0000.11,-000.02,-000.04,-000.38,26.0,00.0,0641.6,34.6
2016-12-27T01:40:00Z,0000380,01000600,-001.05,0000.33,0000.11,-000.18,-000.03,-000.10,0000.02,-000.02,0000.01,26.0,00.0,0641.6,34.6
2016-12-27T01:41:00Z,0000380,01000600,0000.48,-000.20,0000.87,-000.30,0000.02,0000.13,0000.15,0000.18,0000.07,26.0,00.0,0641.6,34.6
2016-12-27T01:42:00Z,0000380,01000600,0000.74,-000.16,-000.06,0000.24,0000.02,-000.12,0000.02,-000.13,0000.08,26.0,00.0,0641.6,34.6
2016-12-27T01:43:00Z,0000380,01000600,-000.34,-000.55,0000.38,0000.38,-000.03,0000.15,0000.13,0000.20,-000.25,25.9,00.0,0641.6,34.6
2016-12-27T01:44:00Z,0000380,01000600,0000.08,0000.02,0000.48,-000.06,-000.07,0000.52,-000.10,0000.01,0000.33,25.9,00.0,0641.6,34.6
2016-12-27T01:45:00Z,0000380,01000600,0000.49,0000.70,0000.68,0000.15,-000.28,-000.29,0000.15,0000.05,0000.02,25.9,00.0,0641.5,34.6
2016-12-27T01:46:00Z,0000380,01000600,-001.13,0000.69,0000.31,0000.04,-000.11,-000.14,0000.06,0000.06,0000.04,25.8,00.0,0641.5,34.6
2016-12-27T01:47:00Z,0000380,01000600,0000.01,-000.65,0000.52,0000.57,-000.19,0000.28,-000.04,-000.06,0000.02,25.8,00.0,0641.5,34.6
2016-12-27T01:48:00Z,0000380,01000600,0000.70,-000.49,0000.57,0000.68,0000.27,0000.08,0000.09,0000.11,0000.09,25.8,00.0,0641.5,34.6
2016-12-27T01:49:00Z,0000380,01000600,0000.34,0000.14,0000.56,0000.06,-000.05,0000.27,0000.05,0000.11,0000.00,25.7,00.0,0641.5,34.5
2016-12-27T01:50:00Z,0000380,01000600,-000.61,-000.18,0000.34,-000.08,-000.48,0000.04,0000.05,-000.10,-000.08,25.7,00.0,0641.5,34.5
2016-12-27T01:51:00Z,0000380,01000600,0000.37,-000.74,0000.91,-000.67,-000.13,0000.32,0000.12,-000.12,0000.27,25.7,00.0,0641.4,34.5
2016-12-27T01:52:00Z,0000380,01000600,-000.26,0000.03,0000.74,-000.47,-000.14,-000.09,-000.07,-000.01,-000.20,25.7,00.0,0641.4,34.5
2016-12-27T01:53:00Z,0000380,01000600,0000.72,-000.96,0000.04,-000.36,-000.31,-000.20,-000.07,0000.13,0000.17,25.6,00.0,0641.4,34.6
2016-12-27T01:54:00Z,0000380,01000600,0000.97,-000.44,-000.11,0000.23,0000.03,0000.28,0000.03,0000.02,0000.22,25.7,00.0,0641.4,34.6
2016-12-27T01:55:00Z,0000380,01000600,0000.08,-000.61,0000.62,0000.41,-000.37,0000.22,0000.30,0000.17,-000.12,25.7,00.0,0641.4,34.6
2016-12-27T01:56:00Z,0000380,01000600,0000.03,0000.12,0000.14,0000.53,0000.30,-000.23,-000.08,0000.17,-000.12,25.7,00.0,0641.4,34.6
2016-12-27T01:57:00Z,0000380,41000600,,,,,,,,,,25.7,00.0,0641.4,34.6
2016-12-27T01:58:00Z,0000380,61000600,,,,,,,,,,25.7,00.0,0640.4,34.6
2016-12-27T01:59:00Z,0000380,21000600,,,,,,,,,,25.7,00.0,0640.4,34.6
2016-12-27T02:00:00Z,0000380,21000600,,,,,,,,,,25.7,00.0,0640.4,34.6
2016-12-27T02:01:00Z,0000380,21000600,,,,,,,,,,25.7,00.0,0640.4,34.6
2016-12-27T02:02:00Z,0000380,21000600,,,,,,,,,,25.7,00.0,0640.4,34.6
2016-12-27T02:03:00Z,0000380,61000600,,,,,,,,,,25.7,00.0,0640.4,34.5
2016-12-27T02:04:00Z,0000380,41000600,0000.24,0000.82,0000.13,0000.65,-000.14,-000.08,0000.03,-000.06,0000.10,25.6,00.0,0641.3,34.5
2016-12-27T02:05:00Z,0000380,01000600,0001.08,-000.04,0000.54,0000.26,-000.30,0000.39,0000.11,0000.15,0000.28,25.6,00.0,0641.4,34.5
2016-12-27T02:06:00Z,0000380,01000600,0000.35,0000.66,0000.44,-000.09,0000.08,0000.31,-000.10,0000.02,0000.02,25.5,00.0,0641.3,34.5
2016-12-27T02:07:00Z,0000380,01000600,0000.84,0000.23,-000.06,-000.21,-000.05,0000.10,0000.07,0000.07,0000.19,25.5,00.0,0641.3,34.5
2016-12-27T02:08:00Z,0000380,01000600,0000.73,-000.25,0000.10,0000.56,-000.05,0000.02,-000.01,-000.09,-000.03,25.5,00.0,0641.3,34.5
2016-12-27T02:09:00Z,0000380,01000600,0001.22,0000.57,0000.62,0000.11,0000.03,0000.16,0000.10,-000.09,-000.25,25.5,00.0,0641.3,34.6
2016-12-27T02:10:00Z,0000380,01000600,-000.15,0000.27,0000.00,-000.23,0000.11,0000.16,-000.11,0000.05,0000.05,25.5,00.0,0641.3,34.6
2016-12-27T02:11:00Z,0000380,01000600,0000.43,0000.12,-000.23,-000.06,-000.04,0000.17,0000.17,0000.10,0000.17,25.5,00.0,0641.3,34.6
2016-12-27T02:12:00Z,0000380,01000600,-000.22,0000.77,0000.09,0000.46,0000.56,0000.17,-000.07,0000.10,-000.03,25.5,00.0,0641.3,34.6
2016-12-27T02:13:00Z,0000380,01000600,-000.14,0000.08,-000.09,-000.27,0000.34,0000.28,-000.11,-000.04,-000.15,25.6,00.0,0641.3,34.6
2016-12-27T02:14:00Z,0000380,01000600,0000.89,-000.12,0000.21,-000.04,0000.05,0000.15,0000.16,0000.05,0000.47,25.6,00.0,0641.3,34.6
2016-12-27T02:15:00Z,0000380,01000600,0001.27,0000.23,-000.08,-000.08,0000.01,-000.18,0000.05,-000.07,-000.28,25.6,00.0,0641.3,34.6
2016-12-27T02:16:00Z,0000380,01000600,0000.26,0001.04,0000.67,-000.38,-000.27,0000.11,-000.00,0000.15,0000.15,25.6,00.0,0641.3,34.6
2016-12-27T02:17:00Z,0000380,01000600,0000.13,-000.30,0000.39,0000.62,0000.20,-000.09,-000.10,0000.05,-000.12,25.6,00.0,0641.2,34.6
2016-12-27T02:18:00Z,0000380,01000600,0000.43,0000.60,0000.13,0000.26,0000.09,0000.09,-000.01,0000.06,0000.21,25.7,00.0,0641.2,34.6
2016-12-27T02:19:00Z,0000380,01000600,0001.05,0000.69,-000.19,-000.42,-000.32,-000.15,0000.35,0000.12,-000.07,25.7,00.0,0641.2,34.6
2016-12-27T02:20:00Z,0000380,01000600,0000.69,0000.11,-000.04,0000.81,-000.02,-000.01,-000.18,-000.04,-000.09,25.7,00.0,0641.2,34.6
2016-12-27T02:21:00Z,0000380,01000600,0001.14,0000.15,-000.04,-000.46,-000.45,-000.22,0000.13,0000.17,0000.18,25.6,00.0,0641.2,34.6
2016-12-27T02:22:00Z,0000380,01000600,-000.39,0000.33,-000.30,-000.14,0000.28,0000.04,0000.09,-000.18,-000.05,25.6,00.0,0641.2,34.6
2016-12-27T02:23:00Z,0000380,01000600,-000.08,0000.51,-000.18,0000.46,-000.14,-000.07,-000.05,0000.02,-000.00,25.6,00.0,0641.1,34.6
2016-12-27T02:24:00Z,0000380,01000600,0000.93,0000.05,-000.14,0000.06,-000.02,-000.28,-000.21,-000.13,-000.05,25.7,00.0,0641.1,34.6
2016-12-27T02:25:00Z,0000380,01000600,0000.79,0000.41,0000.26,0001.02,-000.15,0000.17,0000.17,0000.03,0000.17,25.7,00.0,0641.1,34.6
2016-12-27T02:26:00Z,0000380,01000600,0000.92,0000.54,0000.64,0000.21,-000.25,0000.40,0000.01,0000.13,-000.06,25.7,00.0,0641.2,34.6
2016-12-27T02:27:00Z,0000380,01000600,0001.35,0000.35,0000.20,-000.72,-000.29,0000.41,0000.13,-000.05,0000.25,25.8,00.0,0641.2,34.6
2016-12-27T02:28:00Z,0000380,01000600,0001.44,0000.39,-000.18,-000.00,-000.16,0000.09,-000.07,0000.05,-000.15,25.7,00.0,0641.1,34.6
2016-12-27T02:29:00Z,0000380,01000600,0000.72,0000.10,0000.30,0000.19,-000.06,0000.15,-000.02,0000.06,0000.01,25.8,00.0,0641.1,34.6
2016-12-27T02:30:00Z,0000380,01000600,0000.92,-000.06,0000.06,0000.32,0000.40,-000.07,0000.04,-000.00,-000.11,25.8,00.0,0641.1,34.7
2016-12-27T02:31:00Z,0000380,01000600,0000.31,-000.33,0000.12,-000.50,0000.02,-000.30,0000.18,0000.11,0000.13,25.8,00.0,0641.1,34.7
2016-12-27T02:32:00Z,0000380,01000600,-000.01,0000.06,-000.11,-000.37,0000.09,0000.33,0000.01,0000.22,0000.00,25.9,00.0,0641.1,34.7
2016-12-27T02:33:00Z,0000380,01000600,0000.54,0000.87,0000.17,-000.17,-000.17,0000.23,-000.02,-000.01,0000.15,25.9,00.0,0641.1,34.7
2016-12-27T02:34:00Z,0000380,01000600,-000.57,0000.36,0000.05,0000.53,0000.29,-000.37,-000.05,0000.01,0000.06,25.8,00.0,0641.1,34.6
2016-12-27T02:35:00Z,0000380,01000600,-000.13,0000.77,0000.04,-000.31,-000.25,0000.23,0000.23,0000.15,0000.02,25.8,00.0,0641.1,34.6
2016-12-27T02:36:00Z,0000380,01000600,0000.61,-000.23,0000.32,-000.34,-000.47,0000.39,0000.07,-000.16,0000.07,25.8,00.0,0641.1,34.6
2016-12-27T02:37:00Z,0000380,01000600,-000.03,0000.28,-000.06,-000.16,-000.53,0000.24,0000.04,0000.16,0000.07,25.8,00.0,0641.1,34.6
2016-12-27T02:38:00Z,0000380,01000600,0000.38,0000.06,0000.04,0000.33,-000.25,0000.20,-000.09,-000.06,-000.03,25.8,00.0,0641.0,34.6
2016-12-27T02:39:00Z,0000380,01000600,0000.92,0000.60,0000.07,-000.06,-000.15,-000.19,0000.13,-000.13,0000.22,25.8,00.0,0641.0,34.6
2016-12-27T02:40:00Z,0000380,01000600,0000.19,0000.26,0000.29,0000.17,-000.30,0000.03,0000.05,0000.17,-000.18,25.8,00.0,0641.0,34.6
2016-12-27T02:41:00Z,0000380,01000600,-000.77,0000.14,-000.20,0000.14,-000.14,0000.14,0000.06,0000.00,-000.13,25.9,00.0,0641.0,34.6
2016-12-27T02:42:00Z,0000380,01000600,0001.15,0000.66,0000.33,0001.09,0000.25,0000.06,-000.06,0000.30,0000.13,25.9,00.0,0641.0,34.6
2016-12-27T02:43:00Z,0000380,01000600,0001.02,-000.01,0000.17,0000.49,0000.05,-000.08,-000.03,-000.08,-000.02,25.9,00.0,0641.0,34.6
2016-12-27T02:44:00Z,0000380,01000600,0000.45,0000.92,0000.56,-000.66,-000.32,-000.12,0000.21,-000.07,-000.13,25.9,00.0,0641.0,34.6
2016-12-27T02:45:00Z,0000380,01000600,0000.03,0000.66,0000.52,0000.83,-000.08,0000.34,-000.04,0000.07,0000.17,25.9,00.0,0641.0,34.6
2016-12-27T02:46:00Z,0000380,01000600,0000.13,0000.05,-000.05,-000.14,-000.10,-000.06,0000.15,0000.07,-000.07,25.8,00.0,0641.0,34.6
2016-12-27T02:47:00Z,0000380,01000600,0000.08,0000.67,-000.13,-000.16,0000.20,-000.06,-000.03,0000.05,0000.16,25.8,00.0,0641.0,34.6
2016-12-27T02:48:00Z,0000380,01000600,0000.09,0000.33,0000.06,-000.14,0000.00,-000.24,0000.04,0000.06,0000.19,25.8,00.0,0641.0,34.6
2016-12-27T02:49:00Z,0000380,01000600,-000.22,0001.03,-000.07,0000.17,-000.17,-000.22,-000.03,-000.09,-000.37,25.7,00.0,0641.0,34.5
2016-12-27T02:50:00Z,0000380,01000600,0000.89,0000.40,-000.02,-000.36,-000.29,0000.08,0000.11,0000.07,0000.04,25.7,00.0,0641.0,34.5
2016-12-27T02:51:00Z,0000380,01000600,0000.39,0000.82,0000.05,0000.42,0000.07,0000.03,0000.32,0000.02,0000.37,25.7,00.0,0641.0,34.5
2016-12-27T02:52:00Z,0000380,01000600,0000.24,0000.85,-000.27,0000.24,0000.24,0000.00,-000.16,-000.11,-000.22,25.6,00.0,0640.9,34.5
2016-12-27T02:53:00Z,0000380,01000600,0000.84,0000.94,0000.76,-000.34,-000.07,0000.37,-000.05,0000.10,0000.23,25.7,00.0,0640.9,34.6
2016-12-27T02:54:00Z,0000380,01000600,0000.60,-000.14,0000.13,-000.35,-000.17,0000.43,-000.07,0000.04,0000.03,25.6,00.0,0640.9,34.6
2016-12-27T02:55:00Z,0000380,01000600,0001.00,0000.86,0000.65,0000.81,0000.45,0000.01,0000.06,-000.18,-000.13,25.6,00.0,0640.9,34.6
2016-12-27T02:56:00Z,0000380,01000600,0001.23,0000.01,0000.18,-000.07,-000.08,-000.46,0000.19,0000.16,0000.01,25.7,00.0,0640.9,34.6
2016-12-27T02:57:00Z,0000380,41000600,,,,,,,,,,25.7,00.0,0640.8,34.6
2016-12-27T02:58:00Z,0000380,61000600,,,,,,,,,,25.7,00.0,0639.8,34.6
2016-12-27T02:59:00Z,0000380,21000600,,,,,,,,,,25.7,00.0,0639.8,34.6
2016-12-27T03:00:00Z,0000380,21000600,,,,,,,,,,25.7,00.0,0639.8,34.6
2016-12-27T03:01:00Z,0000380,21000600,,,,,,,,,,25.7,00.0,0639.8,34.6
2016-12-27T03:02:00Z,0000380,21000600,,,,,,,,,,25.7,00.0,0639.8,34.6
2016-12-27T03:03:00Z,0000380,61000600,,,,,,,,,,25.7,00.0,0639.8,34.6
2016-12-27T03:04:00Z,0000380,41000600,-000.27,0000.56,0000.20,0000.94,0000.10,-000.10,0000.09,0000.02,0000.07,25.7,00.0,0640.7,34.6
2016-12-27T03:05:00Z,0000380,01000600,0002.46,0000.70,0000.06,0000.35,0000.39,-000.03,0000.06,0000.04,-000.37,25.7,00.0,0640.7,34.5
2016-12-27T03:06:00Z,0000380,01000600,-000.19,0000.47,-000.08,0000.04,0000.17,-000.12,0000.13,0000.13,0000.29,25.6,00.0,0640.7,34.5
2016-12-27T03:07:00Z,0000380,01000600,0000.50,0000.44,-000.08,0000.12,0000.68,0000.02,0000.04,0000.00,-000.06,25.6,00.0,0640.7,34.6
2016-12-27T03:08:00Z,0000380,01000600,0001.03,0000.52,-000.01,-000.10,0000.98,-000.10,-000.20,-000.10,0000.01,25.6,00.0,0640.7,34.6
2016-12-27T03:09:00Z,0000380,01000600,0000.94,0000.26,0000.19,-000.02,0000.36,0000.08,0000.02,-000.10,-000.02,25.6,00.0,0640.6,34.6
2016-12-27T03:10:00Z,0000380,01000600,0000.77,0000.29,-000.05,0000.04,0000.26,-000.38,0000.07,0000.19,-000.07,25.6,00.0,0640.6,34.6
2016-12-27T03:11:00Z,0000380,01000600,0000.28,0000.79,0000.35,0000.34,0000.45,-000.03,0000.09,-000.10,0000.34,25.6,00.0,0640.6,34.6